Location: Blériot-Plage
(50.9575°N, 1.8224°E)
Time: 07:22:03
(UTC+00:00)

Landsat 5 - Pass Details

Date: 15 May 2026
Orbit: 505 x 601 km, 98.1° (Epoch: 5 June)

Event Time Altitude Azimuth Distance (km) Brightness Sun altitude
Rises 23:41:34 0° 22° (NNE) 2,801 8.1 -20.0°
Reaches altitude 10° 23:43:57 10° 33° (NNE) 1,880 6.8 -20.0°
Maximum altitude 23:47:35 31° 96° (E) 998 4.5 -20.0°
Enters shadow 23:48:11 29° 114° (ESE) 1,028 4.4 -20.0°
